Regional Weather Roundup
Issued by NWS Grand Forks, ND

Home | Current Version | Previous Version | Text Only | Print | Product List | Glossary On
Versions: 1 2 3 4 5 6 7 8 9 10 11 12 13 14 15 16 17 18 19 20 21 22 23 24 25 26 27 28 29 30 31 32 33 34 35 36 37 38 39 40 41 42 43 44 45 46 47 48 49 50
000
ASUS43 KFGF 252031
RWRFGF
PRAIRIE TO PINES  WEATHER ROUNDUP
NATIONAL WEATHER SERVICE EASTERN NORTH DAKOTA/GRAND FORKS ND
300 PM CDT TUE APR 25 2017

 **SATELLITE DATA USED TO AUGMENT SKY COVER AT AUTOMATED STATIONS**
 *****  WEATHER ACROSS EASTERN NORTH DAKOTA  *****

CITY           SKY/WX    TMP DP  RH WIND       PRES   REMARKS
GRAND FORKS    CLOUDY    37  30  75 N26       29.84S
GRAND FRKS AFB CLOUDY    34  27  75 NE23G30   29.85S WCI  22
DEVILS LAKE    CLOUDY    32  26  78 NE17G25   29.89R WCI  21
FARGO          CLOUDY    38  31  76 N23G33    29.75S
WAHPETON ARPT  CLOUDY    37  32  81 N24G31    29.69R
$$

 ***** WEATHER ACROSS CENTRAL AND WESTERN NORTH DAKOTA  *****

CITY           SKY/WX    TMP DP  RH WIND       PRES   REMARKS
BISMARCK       CLOUDY    33  26  75 N20G26    29.88S WCI  21
MINOT          CLOUDY    40  26  57 N20G25    29.92S
JAMESTOWN      CLOUDY    32  28  85 N16G28    29.80F WCI  21
MINOT AFB      PTSUNNY   39  25  56 N17G24    29.92S
GARRISON         N/A     36  24  62 NE14G21   29.90S
WILLISTON      FAIR      40  24  53 E15       29.97S
DICKINSON      CLOUDY    28  23  81 N13       29.87S WCI  17
HETTINGER      CLOUDY    28  25  88 N14G23    29.87R WCI  17
$$

 *****  OTHER AIRPORT OBSERVATIONS IN OUR AREA  *****

CITY           SKY/WX    TMP DP  RH WIND       PRES   REMARKS
WALHALLA       NOT AVBL
GRAFTON AIRPOR CLOUDY    34  27  75 N22       29.90F WCI  22
VALLEY CITY AR FLURRIES  32  30  93 N24G32    29.80S WCI  19
CANDO          NOT AVBL
CAVALIER APRT    N/A     34  27  75 NE20G30   29.90R WCI  22
GWINNER        CLOUDY    36  30  80 MISG      29.73S
SHEYENNE NWR     N/A     35  29  77 N16       29.95S
ROLLA          MOCLDY    37  27  65 NE29G35   29.89F
 ***** THE ABOVE OBSERVATIONS ARE NON NWS ARE NOT QUALITY
       CONTROLLED AND MAY MIS-REPORT RAIN FOR SNOW...
$$

  *****  WEATHER ACROSS NORTHERN MINNESOTA  *****

CITY           SKY/WX    TMP DP  RH WIND       PRES   REMARKS
FLAG ISLAND    CLOUDY    30  25  80 NE21G29   29.89S WCI  17
WARROAD        CLOUDY    32  27  80 N18G24    29.88R WCI  20
ROSEAU         CLOUDY    34  28  80 NE20G28   29.87R WCI  22
HALLOCK        CLOUDY    36  27  69 NE16G22   29.89R
THF RVR FALLS  CLOUDY    35  28  75 N22G30    29.81S WCI  23
BAUDETTE       CLOUDY    33  26  75 NE16G22   29.83R WCI  23
WASKISH        CLOUDY    36  30  80 N15G22    29.77S
CROOKSTON      CLOUDY    37  30  75 NE18G25   29.81F
STEPHEN NDAWN    N/A     36  28  75 NE17        N/A
GREENBUSH NDAW   N/A     32  28  86 NE17        N/A  WCI  21
$$
  *****  WEATHER ACROSS CENTRAL AND WEST MINNESOTA  *****

CITY           SKY/WX    TMP DP  RH WIND       PRES   REMARKS
FOSSTON        CLOUDY    37  36  93 N16G24    29.75S
BEMIDJI        CLOUDY    35  32  88 N15G21    29.73R
PARK RAPIDS    CLOUDY    40  32  73 N20G25    29.66R
ELBOW LAKE     CLOUDY    43  37  80 NE15      29.64R
WADENA         CLOUDY    43  36  75 N16       29.64R
DETROIT LAKES  CLOUDY    39  36  87 N16G22    29.69R
MOORHEAD       CLOUDY    39  30  70 N26G32    29.73F
FERGUS FALLS   CLOUDY    39  37  93 N15G23    29.66S
MORRIS MN      CLOUDY    45  37  76 NW18      29.61F
STAPLES        CLOUDY    45  36  70 NE14      29.63S
$$
  *****  WEATHER ELSEWHERE ACROSS MINNESOTA  *****

CITY           SKY/WX    TMP DP  RH WIND       PRES   REMARKS
DULUTH         PTSUNNY   54  41  61 SE13      29.60S
INTRNTL FALLS  CLOUDY    32  26  78 NE13G23   29.79S WCI  22
ELY            CLOUDY    43  37  81 N8        29.69S
CLOQUET        FAIR      55  36  47 E15       29.60R
WHEATON        CLOUDY    39  34  81 N23G30    29.69S
BRAINERD       FAIR      53  39  59 N18       29.60R
HIBBING        CLOUDY    43  38  82 N14G22    29.66S
ALEXANDRIA     CLOUDY    47  38  71 N17G24    29.62R
SAINT CLOUD    FAIR      61  44  53 NE6       29.54S
MINNEAPOLIS    LGT RAIN  53  47  79 VRB6      29.57S
$$

  *****  WEATHER ACROSS SOUTH DAKOTA  *****

CITY           SKY/WX    TMP DP  RH WIND       PRES   REMARKS
SIOUX FALLS    LGT RAIN  42  42 100 N14       29.61R
BROOKINGS      CLOUDY    37  34  89 N20       29.62R
WATERTOWN      CLOUDY    36  32  85 N17G26    29.64R
HURON          CLOUDY    38  32  79 N18       29.70R
SISSETON         N/A     37  33  85 N28       29.67S
ABERDEEN       CLOUDY    36  27  69 N24G31    29.76R
MITCHELL       CLOUDY    40  33  76 N17G26    29.69R
PIERRE         CLOUDY    35  28  75 N17       29.77R WCI  25
MOBRIDGE       CLOUDY    35  25  66 N16       29.81R
RAPID CITY     LGT SNOW  30  26  85 N21       29.80R VSB 3/4 WCI  17
$$

  *****  SOME WEATHER IN NEARBY STATES *****

CITY           SKY/WX    TMP DP  RH WIND       PRES   REMARKS
GLASGOW MT     CLOUDY    38  24  57 E12G17    29.95F
GREAT FALLS MT PTSUNNY   52  37  56 E8        29.77F
CHEYENNE WY    CLOUDY    50  27  40 NW21G30   29.61R
SCOTTSBLUFF NE LGT RAIN  42  37  82 NE17      29.65R
OMAHA NE       CLOUDY    52  43  71 N17       29.49S
DES MOINES IA  CLOUDY    73  48  41 SE14      29.42F
DAVENPORT IA   FAIR      77  43  29 SE21G31   29.51F
CHICAGO IL     CLOUDY    74  48  39 S14G21    29.61F
EAU CLAIRE WI  LGT RAIN  69  44  40 SE18      29.53R
LA CROSSE WI   LGT RAIN  68  50  52 CALM      29.54S
$$

  *****  SOME NATIONAL WEATHER *****

CITY           SKY/WX    TMP DP  RH WIND       PRES   REMARKS
LA GUARDIA NY  LGT RAIN  55  51  86 NE30G37   29.97F
RALEIGH NC     PTSUNNY   69  59  70 W7        29.64F
ATLANTA GA     FAIR      75  58  55 NW10      29.75F
NEW ORLEANS LA FAIR      77  59  53 S15       29.78F
OKLAHOMA CITY  PTSUNNY   82  61  48 S23G30    29.37F
ALBUQUERQUE NM CLOUDY    50  45  83 E8        29.70F
SALT LAKE CITY PTSUNNY   47  41  80 W10       29.87F
LOS ANGELES CA PTSUNNY   69  51  52 W14       29.91F
BOISE ID       PTSUNNY   54  35  48 NW9       29.93S
SEATTLE WA     CLOUDY    53  40  61 SW10      29.94F
$$

*** WEATHER ACROSS MANITOBA...SASKATCHEWAN AND ONTARIO ***
                ***ONTARIO***

CITY           SKY/WX    TMP DP  RH WIND       PRES   REMARKS
GERALDTON      FLURRIES  27  23  86 NE10G17   29.90R WCI  17
THUNDER BAY    LGT RAIN  39  36  87 N8        29.76R
SIOUX LOOKOUT  CLOUDY    27  19  74 NE10G21   29.91S WCI  17
TORONTO        CLOUDY    48  46  93 E14G21    29.93F
BIG TROUT LK   SUNNY     27   5  39 NE8       30.21R WCI  18
PICKLE LAKE    FLURRIES  23  16  74 NE16G25   30.03R WCI  10
DRYDEN         CLOUDY    27  21  80 NE20G28   29.89R WCI  13
KENORA         CLOUDY    28  23  80 NE15G22   29.90  WCI  17
$$
                *** MANITOBA***

CITY           SKY/WX    TMP DP  RH WIND       PRES   REMARKS
BRANDON        PTSUNNY   39  23  52 NE21G38   29.98S
DAUPHIN        SUNNY     37  16  41 NE14G23   30.10R
ISLAND LAKE    SUNNY     30   7  37 E13G21    30.21R WCI  20
PILOT MOUND      N/A     37  25  60 NE21G29     N/A
THE PAS        MOSUNNY   30   3  31 E9        30.22S WCI  22
THOMPSON       SUNNY     23  -8  25 NE6       30.30F WCI  16
WINNIPEG       PTSUNNY   41  27  56 NE20G29   29.93F
LYNN LAKE      SUNNY     28   5  37 SE7       30.24F WCI  21
CHURCHILL      MOSUNNY    9   1  72 S7        30.44F WCI  -3
GILLAM         SUNNY     18  -4  38 NE7       30.38S WCI   8
$$
                ***SASKATCHEWAN***

CITY           SKY/WX    TMP DP  RH WIND       PRES   REMARKS
ESTEVAN        PTSUNNY   37  23  56 NE14      30.00R
KINDERSLEY     CLOUDY    36  23  60 E20G25    29.97R
LLOYDMINSTER   LGT SNOW  34  30  86 SE13G20   30.02S WCI  25
PRINCE ALBERT  PTSUNNY   37  14  38 SE10G18   30.12S
REGINA         MOSUNNY   36  21  55 NE13      30.04R
YORKTON        SUNNY     37  21  52 N10G18    30.06S
N. BATTLEFORD  CLOUDY    34  23  64 SE16      30.08S WCI  23
LA RONGE       MOSUNNY   37   7  28 E13G20    30.17F
SASKATOON      PTSUNNY   36  19  51 E12G21    30.08S
SWIFT CURRENT  CLOUDY    32  25  74 SE13G18   29.95R WCI  22
$$
NOTE: THESE ARE AUTOMATED STATIONS WITH LIMITED QUALITY CONTROL
      "FAIR" INDICATES FEW OR NO CLOUDS BELOW 12,000 FEET WITH NO
      SIGNIFICANT WEATHER AND/OR OBSTRUCTIONS TO VISIBILITY.
      SKY/WX - SKY CONDITION AND SIGNIFICANT WEATHER.
      TMP - AIR TEMPERATURE.    DP   - DEWPOINT TEMPERATURE.
      RH  - RELATIVE HUMIDITY.  PRES - PRESSURE.
      HX  - HEAT INDEX.         WCI  - WIND CHILL INDEX.
$




USA.gov is the U.S. government's official web portal to all federal, state and local government web resources and services.